• In Sweden
  • List of Countries
  • For 7 days
  • Water Temperature
  • Satellite Maps
  • Weather Map
  • Weather Widgets
  • user-avatar
    Login

    Hourly Weather Starokorotkino

    Today, 28 May, Monday

    Time Temperature Precipitation Wind Pressure Humidity
    00:00 +3°C° 0 mm 0 mps 750 mmHg 65%
    01:00 +4°C° 0 mm 1 mps 749 mmHg 64%
    02:00 +3°C° 0 mm 1 mps 749 mmHg 64%
    03:00 +3°C° 0 mm 1 mps 749 mmHg 64%
    04:00 +4°C° 0.1 mm 1 mps 749 mmHg 62%
    05:00 +4°C° 0.1 mm 1 mps 748 mmHg 61%
    06:00 +4°C° 0.1 mm 1 mps 748 mmHg 60%
    07:00 +6°C° 0 mm 1 mps 748 mmHg 55%
    08:00 +8°C° 0 mm 1 mps 748 mmHg 51%
    09:00 +9°C° 0 mm 1 mps 748 mmHg 47%
    10:00 +11°C° 0 mm 1 mps 748 mmHg 42%
    11:00 +13°C° 0 mm 1 mps 748 mmHg 38%
    12:00 +15°C° 0 mm 0 mps 748 mmHg 33%
    13:00 +16°C° 0 mm 1 mps 748 mmHg 32%
    14:00 +16°C° 0 mm 2 mps 748 mmHg 31%
    15:00 +16°C° 0 mm 2 mps 748 mmHg 30%
    16:00 +14°C° 0 mm 3 mps 748 mmHg 35%
    17:00 +14°C° 0 mm 3 mps 748 mmHg 40%
    18:00 +14°C° 0 mm 4 mps 748 mmHg 44%
    19:00 +12°C° 0 mm 4 mps 749 mmHg 55%
    20:00 +10°C° 0 mm 4 mps 749 mmHg 67%
    21:00 +7°C° 0 mm 4 mps 749 mmHg 78%
    22:00 +7°C° 0 mm 4 mps 749 mmHg 80%
    23:00 +6°C° 0 mm 4 mps 749 mmHg 82%

    Tomorrow, 29 May, Tuesday

    Time Temperature Precipitation Wind Pressure Humidity
    00:00 +5°C° 0 mm 4 mps 749 mmHg 83%
    01:00 +5°C° 0 mm 4 mps 748 mmHg 83%
    02:00 +5°C° 0 mm 4 mps 748 mmHg 82%
    03:00 +5°C° 0 mm 5 mps 747 mmHg 82%
    04:00 +5°C° 0 mm 5 mps 747 mmHg 80%
    05:00 +6°C° 0 mm 5 mps 747 mmHg 78%
    06:00 +6°C° 0 mm 5 mps 746 mmHg 76%
    07:00 +7°C° 0.1 mm 6 mps 746 mmHg 75%
    08:00 +8°C° 0.1 mm 6 mps 746 mmHg 74%
    09:00 +9°C° 0.1 mm 6 mps 746 mmHg 73%
    10:00 +10°C° 0.2 mm 6 mps 745 mmHg 75%
    11:00 +10°C° 0.2 mm 6 mps 745 mmHg 77%
    12:00 +11°C° 0.2 mm 6 mps 745 mmHg 79%
    13:00 +11°C° 0.2 mm 6 mps 745 mmHg 78%
    14:00 +13°C° 0.2 mm 6 mps 744 mmHg 78%
    15:00 +13°C° 0.2 mm 6 mps 744 mmHg 77%
    16:00 +13°C° 0.5 mm 6 mps 744 mmHg 77%
    17:00 +12°C° 0.5 mm 7 mps 744 mmHg 76%
    18:00 +12°C° 0.5 mm 7 mps 745 mmHg 76%
    19:00 +10°C° 0.1 mm 6 mps 745 mmHg 79%
    20:00 +8°C° 0.1 mm 5 mps 746 mmHg 82%
    21:00 +6°C° 0.1 mm 4 mps 747 mmHg 85%
    22:00 +4°C° 0 mm 3 mps 748 mmHg 88%
    23:00 +3°C° 0 mm 3 mps 748 mmHg 92%

    Day after tomorrow, 30 May, Wednesday

    Time Temperature Precipitation Wind Pressure Humidity
    00:00 +3°C° 0 mm 2 mps 749 mmHg 95%
    01:00 +3°C° 0 mm 2 mps 749 mmHg 95%
    02:00 +3°C° 0 mm 2 mps 749 mmHg 95%
    03:00 +3°C° 0 mm 2 mps 749 mmHg 95%
    04:00 +4°C° 0.1 mm 2 mps 749 mmHg 93%
    05:00 +4°C° 0.1 mm 2 mps 749 mmHg 91%
    06:00 +5°C° 0.1 mm 2 mps 749 mmHg 88%
    07:00 +6°C° 0.1 mm 2 mps 749 mmHg 85%
    08:00 +7°C° 0.1 mm 2 mps 749 mmHg 81%
    09:00 +8°C° 0.1 mm 2 mps 749 mmHg 78%
    10:00 +10°C° 0.1 mm 2 mps 748 mmHg 69%
    11:00 +13°C° 0.1 mm 2 mps 748 mmHg 61%
    12:00 +15°C° 0.1 mm 2 mps 748 mmHg 53%
    13:00 +15°C° 0.1 mm 2 mps 747 mmHg 54%
    14:00 +16°C° 0.1 mm 2 mps 747 mmHg 54%
    15:00 +16°C° 0.1 mm 2 mps 746 mmHg 54%
    16:00 +16°C° 0.3 mm 2 mps 746 mmHg 60%
    17:00 +15°C° 0.3 mm 2 mps 746 mmHg 65%
    18:00 +14°C° 0.3 mm 3 mps 745 mmHg 71%
    19:00 +12°C° 1.1 mm 3 mps 745 mmHg 77%
    20:00 +11°C° 1.1 mm 3 mps 745 mmHg 83%
    21:00 +8°C° 1.1 mm 4 mps 745 mmHg 89%
    22:00 +8°C° 0.4 mm 4 mps 744 mmHg 90%
    23:00 +8°C° 0.4 mm 4 mps 744 mmHg 91%

    31 May, Thursday

    Time Temperature Precipitation Wind Pressure Humidity
    00:00 +7°C° 0.4 mm 4 mps 744 mmHg 92%
    01:00 +7°C° 0.3 mm 4 mps 744 mmHg 93%
    02:00 +8°C° 0.3 mm 3 mps 744 mmHg 93%
    03:00 +7°C° 0.3 mm 3 mps 743 mmHg 93%
    04:00 +6°C° 1.4 mm 4 mps 743 mmHg 93%
    05:00 +6°C° 1.4 mm 4 mps 743 mmHg 93%
    06:00 +6°C° 1.4 mm 5 mps 744 mmHg 93%
    07:00 +6°C° 1.9 mm 5 mps 744 mmHg 92%
    08:00 +5°C° 1.9 mm 5 mps 745 mmHg 90%
    09:00 +5°C° 1.9 mm 5 mps 745 mmHg 89%
    10:00 +7°C° 0.4 mm 4 mps 746 mmHg 80%
    11:00 +10°C° 0.4 mm 4 mps 747 mmHg 70%
    12:00 +12°C° 0.4 mm 4 mps 747 mmHg 61%
    13:00 +13°C° 0 mm 4 mps 748 mmHg 52%
    14:00 +14°C° 0 mm 3 mps 748 mmHg 43%
    15:00 +16°C° 0 mm 3 mps 749 mmHg 34%
    16:00 +17°C° 0 mm 3 mps 749 mmHg 34%
    17:00 +17°C° 0 mm 3 mps 750 mmHg 33%
    18:00 +17°C° 0 mm 4 mps 750 mmHg 33%
    19:00 +14°C° 0 mm 4 mps 750 mmHg 41%
    20:00 +12°C° 0 mm 4 mps 750 mmHg 48%
    21:00 +10°C° 0 mm 5 mps 749 mmHg 56%
    22:00 +10°C° 0 mm 5 mps 749 mmHg 60%
    23:00 +10°C° 0 mm 6 mps 748 mmHg 64%

    1 June, Friday

    Time Temperature Precipitation Wind Pressure Humidity
    00:00 +10°C° 0 mm 6 mps 747 mmHg 68%
    01:00 +10°C° 1.1 mm 6 mps 746 mmHg 74%
    02:00 +9°C° 1.1 mm 6 mps 745 mmHg 81%
    03:00 +9°C° 1.1 mm 7 mps 745 mmHg 88%
    04:00 +10°C° 0.8 mm 6 mps 744 mmHg 89%
    05:00 +10°C° 0.8 mm 6 mps 744 mmHg 90%
    06:00 +12°C° 0.8 mm 5 mps 744 mmHg 91%
    07:00 +13°C° 0.2 mm 6 mps 744 mmHg 89%
    08:00 +14°C° 0.2 mm 6 mps 744 mmHg 86%
    09:00 +15°C° 0.2 mm 6 mps 743 mmHg 83%
    10:00 +14°C° 1.2 mm 6 mps 743 mmHg 85%
    11:00 +14°C° 1.2 mm 6 mps 742 mmHg 88%
    12:00 +13°C° 1.2 mm 6 mps 741 mmHg 90%
    13:00 +13°C° 2.7 mm 6 mps 741 mmHg 90%
    14:00 +11°C° 2.7 mm 6 mps 741 mmHg 91%
    15:00 +12°C° 2.7 mm 5 mps 741 mmHg 91%
    16:00 +11°C° 0.2 mm 6 mps 742 mmHg 84%
    17:00 +11°C° 0.2 mm 6 mps 743 mmHg 78%
    18:00 +12°C° 0.2 mm 7 mps 743 mmHg 72%
    19:00 +10°C° 0.1 mm 6 mps 744 mmHg 71%
    20:00 +9°C° 0.1 mm 5 mps 744 mmHg 71%
    21:00 +8°C° 0.1 mm 4 mps 745 mmHg 71%
    22:00 +8°C° 0 mm 4 mps 746 mmHg 71%
    23:00 +7°C° 0 mm 5 mps 746 mmHg 72%

    2 June, Saturday

    Time Temperature Precipitation Wind Pressure Humidity
    00:00 +7°C° 0 mm 5 mps 747 mmHg 72%
    01:00 +7°C° 0 mm 5 mps 747 mmHg 73%
    02:00 +7°C° 0 mm 5 mps 747 mmHg 73%
    03:00 +6°C° 0 mm 5 mps 748 mmHg 73%
    04:00 +7°C° 0 mm 5 mps 748 mmHg 73%
    05:00 +7°C° 0 mm 6 mps 749 mmHg 72%
    06:00 +7°C° 0 mm 6 mps 750 mmHg 71%
    07:00 +7°C° 0.1 mm 6 mps 751 mmHg 71%
    08:00 +7°C° 0.1 mm 5 mps 751 mmHg 72%
    09:00 +7°C° 0.1 mm 5 mps 752 mmHg 72%
    10:00 +8°C° 0.1 mm 5 mps 752 mmHg 65%
    11:00 +9°C° 0.1 mm 5 mps 753 mmHg 59%
    12:00 +10°C° 0.1 mm 5 mps 753 mmHg 52%
    13:00 +12°C° 0 mm 4 mps 753 mmHg 48%
    14:00 +13°C° 0 mm 4 mps 753 mmHg 44%
    15:00 +14°C° 0 mm 4 mps 754 mmHg 39%
    16:00 +14°C° 0 mm 3 mps 754 mmHg 39%
    17:00 +14°C° 0 mm 3 mps 753 mmHg 39%
    18:00 +15°C° 0 mm 2 mps 753 mmHg 39%
    19:00 +13°C° 0 mm 2 mps 753 mmHg 45%
    20:00 +11°C° 0 mm 1 mps 753 mmHg 52%
    21:00 +10°C° 0 mm 1 mps 753 mmHg 58%
    22:00 +9°C° 0 mm 1 mps 753 mmHg 60%
    23:00 +9°C° 0 mm 1 mps 753 mmHg 62%
    Show more